Regional Weather Roundup
Issued by NWS

Home | Current Version | Previous Version | Text Only | Print | Product List | Glossary On
Versions: 1 2 3 4 5 6 7 8 9 10 11 12 13 14 15 16 17 18 19 20 21 22 23 24 25 26 27 28 29 30 31 32 33 34 35 36 37 38 39 40 41 42 43 44 45 46 47 48 49 50
000
ASUS43 KDTX 220210
RWRMI
MICHIGAN HOURLY REGIONAL WEATHER ROUNDUP
NATIONAL WEATHER SERVICE DETROIT/PONTIAC MI
900 PM EST SUN DEC 21 2014

NOTE: "FAIR" INDICATES FEW OR NO CLOUDS BELOW 12,000 FEET WITH NO
SIGNIFICANT WEATHER AND/OR OBSTRUCTION TO VISIBILITY.

MIZ047>049-052>055-059>063-066>070-074>076-081>083-220300-
SOUTHEAST LOWER MICHIGAN

CITY           SKY/WX    TMP DP  RH WIND       PRES   REMARKS
ADRIAN         CLOUDY    30  26  85 E6        30.20F
ALMA           PTCLDY    30  28  93 SE5       30.17S FOG
ANN ARBOR      CLOUDY    30  24  78 SE7       30.21S
BAD AXE        CLOUDY    31  26  81 S8        30.21S
DETROIT CITY     N/A     30  22  72 SE3       30.24S
DETROIT        CLOUDY    30  23  75 E3        30.23F
FLINT          CLOUDY    33  23  66 SE14      30.20S
GROSSE ILE     PTCLDY    30  25  80 SE7       30.22S
HILLSDALE      CLEAR     30  27  90 SE9       30.15F FOG
HOWELL         CLOUDY    30  24  80 SE9       30.18F

CITY           SKY/WX    TMP DP  RH WIND       PRES   REMARKS
JACKSON        PTCLDY    29  25  85 SE9       30.17F
LAMBERTVILLE     N/A     28  25  86 CALM      30.22S FOG
LANSING        PTCLDY    31  25  78 SE12      30.17F HAZE
LAPEER         NOT AVBL
MASON          CLOUDY    30  26  84 SE9       30.18S
MONROE         PTCLDY    30  27  86 SE5       30.21S
MT. CLEMENS    CLOUDY    31  26  84 SE9       30.22R
PONTIAC        CLOUDY    29  22  75 SE8       30.20S
PORT HOPE        N/A     32  24  72 S5        30.20F
PORT HURON     MOCLDY    25  23  93 CALM      30.24S
TRI CITIES     CLOUDY    34  23  64 SE9       30.19F
YPSILANTI      CLOUDY    32  23  69 E6        30.23S
$$
MIZ043>046-050>051-056>058-064>065-071>073-077>080-220300-
SOUTHWEST LOWER MICHIGAN

CITY           SKY/WX    TMP DP  RH WIND       PRES   REMARKS
BATTLE CREEK   PTCLDY    30  24  78 SE7       30.15F
BENTON HARBOR  PTCLDY    30  26  85 SE7       30.12S
BIG RAPIDS     CLOUDY    32  29  88 S8        30.12S
COLDWATER      PTCLDY    30  26  84 MISG      30.14F FOG
HOLLAND        PTCLDY    33  25  72 SE10      30.13S
GRAND RAPIDS   MOCLDY    30  24  78 SE12      30.14F
KALAMAZOO      PTCLDY    30  24  78 SE7       30.15S HAZE
MARSHALL       PTCLDY    28  25  87 SE8       30.15S
MUSKEGON       CLOUDY    34  26  72 SE12      30.12F
$$
MIZ016>042-220300-
NORTHERN LOWER MICHIGAN

CITY           SKY/WX    TMP DP  RH WIND       PRES   REMARKS
ALPENA         CLOUDY    30  26  85 SE6       30.18F
BEAVER ISLAND  CLOUDY    34  31  87 S12G17    30.08S
BELLAIRE       CLOUDY    33  28  81 S7        30.12S
CADILLAC       CLOUDY    30  26  84 SE13      30.09F
CHARLEVOIX     CLOUDY    32  28  86 SE8G17    30.13S
FRANKFORT      CLOUDY    33  29  85 SE10G16   30.09S
GAYLORD        CLOUDY    29  26  89 S13       30.10F FOG
GRAYLING       CLOUDY    29  27  92 SE10      30.13S FOG
HARBOR SPRINGS CLOUDY    32  27  81 S7        30.11S
HOUGHTON LAKE  CLOUDY    30  26  85 S12G20    30.13F
MANISTEE       CLOUDY    34  25  69 SE7       30.10S
OSCODA         CLOUDY    32  27  81 S6        30.19F
PELLSTON       CLOUDY    32  27  81 SE8       30.11F
TRAVERSE CITY  CLOUDY    34  27  75 VRB7G18   30.09F
$$
MIZ007>008-015-220300-
EASTERN UPPER MICHIGAN

CITY           SKY/WX    TMP DP  RH WIND       PRES   REMARKS
KINROSS        CLOUDY    32  32 100 SE12      30.10F
MACKINAC ISLAN CLOUDY    32  29  86 S12G17    30.10F
NEWBERRY       CLOUDY    31  31  97 SE9       30.05F
S. S. MARIE    CLOUDY    32  29  88 SE8       30.10F
$$
MIZ004>006-011>014-085-220300-
CENTRAL UPPER MICHIGAN

CITY           SKY/WX    TMP DP  RH WIND       PRES   REMARKS
MANISTIQUE     LGT RAIN  35  33  93 S14G22    30.04S
ESCANABA       CLOUDY    36  32  87 S14G20    29.99S
MENOMINEE      CLOUDY    36  32  87 S14G20    29.99F
SAWYER-GWINN   LGT SNOW  32  32 100 S15       29.92F
$$
MIZ001>003-009>011-084-220300-
WESTERN UPPER MICHIGAN

CITY           SKY/WX    TMP DP  RH WIND       PRES   REMARKS
IRON MOUNTAIN  CLOUDY    33  31  92 S17G23    29.91F FOG
HOUGHTON       SNOW      32  31  96 SE7       29.86F VSB 1/4
COPPER HARBOR    N/A     34  32  92 SW9G17    29.89S
IRONWOOD       CLOUDY    34  32  93 S9        29.78S
$$

ABBREVIATIONS USED IN REMARKS
   TC - TEMPERATURE IN CELSIUS
  WCI - WIND CHILL INDEX
   HX - HEAT INDEX
  VSB - VISIBILITY



USA.gov is the U.S. government's official web portal to all federal, state and local government web resources and services.